Weather History for Missoula, MT

Change the Weather History Date:

Thursday, October 14, 2010

  Actual Average Record
Temperature  
Mean Temperature 48 °F 46 °F  
Max Temperature 66 °F 59 °F 82 °F (1918)
Min Temperature 29 °F 33 °F 18 °F (1899)
Degree Days  
Heating Degree Days 17 19  
Month to date heating degree days 150 232  
Since 1 July heating degree days 460 557  
Cooling Degree Days 0 0  
Month to date cooling degree days 3 0  
Year to date cooling degree days 244 332  
Moisture  
Dew Point 34 °F    
Average Humidity 62    
Maximum Humidity 89    
Minimum Humidity 34    
Precipitation  
Precipitation 0.00 in 0.02 in 0.41 in (2001)
Month to date precipitation 0.97 0.39  
Year to date precipitation 13.27 11.59  
Snow  
Snow 0.00 in - - ()
Month to date snowfall 0.0  
Year to date snowfall 8.8  
Since 1 July snowfall 0.0  
Snow Depth 0.00 in    
Sea Level Pressure  
Sea Level Pressure 30.23 in    
Wind  
Wind Speed 1 mph (NW)    
Max Wind Speed 6 mph    
Max Gust Speed 7 mph    
Visibility 10 miles    
Events      
T = Trace of Precipitation, MM = Missing Value Source: NWS Daily Summary

Daily Weather History Graph

Daily Weather History Graph

Search for Another Location

Airport:

Trip Planner

Search our weather history database for the weather conditions in past years. The results will help you decide how hot, cold, wet, or windy it might be!

Date:

Astronomy

Oct. 14, 2010 Rise Set
Actual Time 7:53 AM MDT 6:50 PM MDT
Civil Twilight 7:22 AM MDT 7:21 PM MDT
Nautical Twilight 6:47 AM MDT 7:56 PM MDT
Astronomical Twilight 6:11 AM MDT 8:31 PM MDT
Moon 3:09 PM MDT (10/14) No Moon Set
Length of Visible Light 11h 59m
Length of Day
10h 57m
Waxing Crescent, 49% of the Moon is Illuminated
Oct 14
Waxing Crescent
Oct 14
First Quarter
Oct 22
Full
Oct 30
Last Quarter
Nov 5
New

Hourly Weather History & Observations

Time (MDT) Temp. Windchill Dew Point Humidity Pressure Visibility Wind Dir Wind Speed Gust Speed Precip Events Conditions
12:53 AM 36.0 °F - 32.0 °F 86% 30.35 in 10.0 mi Calm Calm - N/A   Clear
1:53 AM 36.0 °F 33.3 °F 30.9 °F 82% 30.34 in 10.0 mi NW 3.5 mph - N/A   Clear
2:53 AM 35.1 °F - 30.9 °F 85% 30.35 in 10.0 mi Calm Calm - N/A   Clear
3:53 AM 35.1 °F - 30.0 °F 82% 30.34 in 10.0 mi Calm Calm - N/A   Clear
4:53 AM 33.8 °F - 30.2 °F 87% 30.30 in 10.0 mi Calm Calm - N/A   Clear
5:53 AM 32.0 °F - 28.9 °F 88% 30.33 in 10.0 mi Calm Calm - N/A   Clear
6:53 AM 32.0 °F - 28.9 °F 88% 30.34 in 10.0 mi Calm Calm - N/A   Clear
7:53 AM 30.0 °F - 27.0 °F 88% 30.36 in 10.0 mi Calm Calm - N/A   Clear
8:53 AM 34.0 °F - 30.0 °F 85% 30.36 in 10.0 mi Calm Calm - N/A   Clear
9:53 AM 37.0 °F - 32.0 °F 82% 30.35 in 10.0 mi Calm Calm - N/A   Clear
10:53 AM 43.0 °F - 34.0 °F 71% 30.33 in 10.0 mi Calm Calm - N/A   Clear
11:53 AM 46.9 °F - 34.0 °F 61% 30.29 in 10.0 mi Calm Calm - N/A   Clear
12:53 PM 52.0 °F - 36.0 °F 54% 30.25 in 10.0 mi Calm Calm - N/A   Clear
1:53 PM 57.0 °F - 34.0 °F 42% 30.19 in 10.0 mi Calm Calm - N/A   Clear
2:53 PM 61.0 °F - 36.0 °F 39% 30.15 in 10.0 mi Calm Calm - N/A   Clear
3:53 PM 63.0 °F - 36.0 °F 37% 30.12 in 10.0 mi WNW 5.8 mph - N/A   Clear
4:53 PM 64.9 °F - 35.1 °F 33% 30.09 in 10.0 mi Calm Calm - N/A   Clear
5:53 PM 64.0 °F - 37.9 °F 38% 30.07 in 10.0 mi Calm Calm - N/A   Clear
6:53 PM 57.9 °F - 39.9 °F 51% 30.07 in 10.0 mi Calm Calm - N/A   Clear
7:53 PM 51.1 °F - 39.9 °F 66% 30.09 in 10.0 mi North 3.5 mph - N/A   Clear
8:53 PM 48.9 °F - 39.0 °F 69% 30.10 in 10.0 mi Calm Calm - N/A   Clear
9:53 PM 46.9 °F - 37.0 °F 68% 30.11 in 10.0 mi Calm Calm - N/A   Clear
10:53 PM 46.0 °F - 36.0 °F 68% 30.10 in 10.0 mi Calm Calm - N/A   Clear
11:53 PM 42.8 °F - 35.6 °F 76% 30.06 in 10.0 mi Calm Calm - N/A   Clear